Time[GMT],air_temperature[C](-3m),wind_speed[m/s](-4m),wind_gust[m/s](-4m),visibility[m](-3m),barometric_pressure[millibars](-3m),wind_2_direction[degrees_true](-4m),wind_2_gust[m/s](-4m),wind_2_gust_1s[m/s](-4m),wind_2_min[m/s](-4m),wind_2_percent_good[1](-4m),wind_2_speed[m/s](-4m),wind_direction[degrees_true](-4m),wind_gust_1s[m/s](-4m),wind_min[m/s](-4m)
2020-11-10 22:00,12.4,,,2999,1017.13,227.90,4.50,5.51,2.03,1.00,3.71,,,
2020-11-10 23:00,12.3,,,2999,1017.00,218.80,5.38,6.40,3.04,1.00,4.54,,,
2020-11-11 00:00,12.7,,,2999,1017.00,219.40,6.85,7.76,3.71,1.00,5.99,,,
2020-11-11 01:00,12.6,,,2999,1017.49,232.10,2.62,3.09,1.03,1.00,2.12,,,
2020-11-11 02:00,11.8,,,2999,1017.25,193.60,2.96,3.65,1.27,1.00,2.54,,,
2020-11-11 03:00,12.5,,,2999,1017.25,217.20,6.66,7.39,2.84,1.00,5.20,,,
2020-11-11 04:00,12.9,,,2999,1017.00,224.70,7.78,8.66,4.33,1.00,6.65,,,
2020-11-11 05:00,12.8,,,2999,1017.25,213.70,6.65,7.78,2.83,1.00,5.35,,,
2020-11-11 06:00,12.3,,,2999,1017.13,204.00,3.19,4.16,0.24,1.00,2.31,,,
2020-11-11 07:00,12.9,,,2999,1016.64,214.90,6.74,8.07,1.46,1.00,4.71,,,
2020-11-11 08:00,12.7,,,2999,1016.27,226.10,8.00,9.17,3.90,1.00,6.56,,,
2020-11-11 09:00,12.7,,,2999,1015.90,225.90,8.98,10.20,3.16,1.00,6.42,,,
2020-11-11 10:00,12.6,,,2999,1015.65,221.40,11.26,12.58,6.04,1.00,9.29,,,
2020-11-11 11:00,12.5,,,2999,1015.65,223.20,9.48,11.13,5.08,1.00,8.19,,,
2020-11-11 12:00,12.5,,,2999,1015.78,226.60,8.99,10.57,5.08,1.00,7.66,,,
2020-11-11 13:00,12.8,,,2999,1015.78,223.80,9.77,10.85,5.16,1.00,8.04,,,
2020-11-11 14:00,12.6,,,2999,1016.02,221.70,7.95,9.40,4.15,1.00,6.63,,,
2020-11-11 15:00,12.7,,,2999,1015.65,229.60,8.86,9.84,3.25,1.00,7.09,,,
2020-11-11 16:00,12.7,,,2999,1014.92,226.40,8.94,10.15,4.60,1.00,7.51,,,
2020-11-11 17:00,12.8,,,2999,1013.81,230.20,8.36,9.43,4.24,1.00,7.06,,,
2020-11-11 18:00,,,,,,,,,,,,,,
2020-11-11 19:00,13.3,,,2999,1012.83,227.90,10.13,10.76,3.14,1.00,7.07,,,
2020-11-11 20:00,,,,,,,,,,,,,,
2020-11-11 21:00,13.4,,,2999,1012.22,226.20,10.00,11.91,4.32,1.00,7.90,,,
2020-11-11 22:00,13.4,,,2999,1011.85,220.90,8.91,10.24,4.37,1.00,7.10,,,
2020-11-11 23:00,13.6,,,2999,1011.36,213.30,9.48,11.23,4.33,1.00,7.72,,,
2020-11-12 00:00,13.8,,,2999,1011.12,230.20,11.96,12.80,5.55,1.00,9.20,,,
2020-11-12 01:00,13.3,,,2999,1011.24,227.60,10.85,11.47,3.87,1.00,7.87,,,
2020-11-12 02:00,13.4,,,2999,1011.00,224.80,10.13,11.52,3.54,1.00,7.90,,,
2020-11-12 03:00,13.7,,,2999,1011.00,219.90,10.51,11.79,4.64,1.00,8.33,,,
2020-11-12 04:00,13.7,,,2999,1010.63,224.70,9.82,10.69,4.20,1.00,7.56,,,
2020-11-12 05:00,13.2,,,2999,1010.26,225.70,8.00,9.75,3.68,1.00,6.55,,,
2020-11-12 06:00,13.2,,,2999,1009.77,223.40,10.18,10.98,5.13,1.00,8.32,,,
2020-11-12 07:00,,,,,,,,,,,,,,
2020-11-12 08:00,,,,,,,,,,,,,,
2020-11-12 09:00,13.5,,,2999,1010.51,243.50,6.86,7.48,3.39,1.00,5.79,,,
2020-11-12 10:00,12.8,,,2999,1011.00,277.90,4.00,4.86,1.14,1.00,2.99,,,
2020-11-12 11:00,12.3,,,2999,1011.85,236.20,2.84,3.51,0.73,1.00,2.24,,,
2020-11-12 12:00,13.8,,,2999,1012.10,326.90,2.79,4.09,0.07,1.00,2.24,,,
2020-11-12 13:00,14.7,,,2999,1012.96,358.18,4.62,5.71,1.58,1.00,3.81,,,
2020-11-12 14:00,12.9,,,2999,1013.57,2.29,3.12,3.81,1.18,1.00,2.47,,,
2020-11-12 15:00,13.1,,,2999,1014.06,350.25,6.70,7.37,3.14,1.00,5.00,,,
2020-11-12 16:00,,,,,,,,,,,,,,
2020-11-12 17:00,12.3,,,2999,1014.92,13.54,5.66,7.08,2.57,1.00,4.75,,,
2020-11-12 18:00,11.4,,,2999,1015.16,340.20,9.04,9.86,4.07,1.00,6.64,,,
2020-11-12 19:00,10.9,,,2999,1015.29,13.80,4.63,5.94,1.39,1.00,3.64,,,
2020-11-12 20:00,11.6,,,2999,1015.65,344.10,6.86,8.03,2.90,1.00,5.52,,,
2020-11-12 21:00,11.4,,,2999,1016.27,359.21,7.85,9.03,3.10,1.00,6.31,,,
2020-11-12 22:00,11.0,,,2999,1016.88,4.26,8.15,8.89,3.55,1.00,6.53,,,
2020-11-12 23:00,10.6,,,2999,1016.88,18.55,8.22,9.28,4.22,1.00,6.68,,,
2020-11-13 00:00,,,,,,,,,,,,,,
2020-11-13 01:00,,,,,,,,,,,,,,
2020-11-13 02:00,,,,,,,,,,,,,,
2020-11-13 03:00,8.7,,,2999,1018.48,358.12,11.67,12.62,5.82,1.00,9.39,,,
2020-11-13 04:00,8.6,,,2999,1019.70,2.06,10.15,11.22,4.34,1.00,8.26,,,
2020-11-13 05:00,8.2,,,2999,1020.32,9.43,11.17,12.36,6.14,1.00,9.38,,,
2020-11-13 06:00,7.8,,,2999,1020.56,19.04,10.90,12.34,5.02,1.00,8.70,,,
2020-11-13 07:00,,,,,,,,,,,,,,
2020-11-13 08:00,,,,,,,,,,,,,,
2020-11-13 09:00,7.0,,,2999,1021.18,33.18,10.40,11.46,5.04,1.00,8.62,,,
2020-11-13 10:00,6.4,,,2999,1021.30,39.57,9.51,10.85,4.14,1.00,7.40,,,
2020-11-13 11:00,6.0,,,2999,1021.30,39.51,9.98,11.04,4.63,1.00,7.83,,,
2020-11-13 12:00,5.4,,,2999,1021.18,32.74,10.84,12.50,4.74,1.00,8.55,,,
2020-11-13 13:00,5.1,,,2999,1020.32,45.25,9.99,10.58,4.58,1.00,7.72,,,
2020-11-13 14:00,5.2,,,2999,1020.56,53.51,7.08,7.86,2.05,1.00,4.49,,,
2020-11-13 15:00,5.8,,,2999,1019.95,56.17,6.31,7.16,1.96,1.00,4.78,,,
2020-11-13 16:00,6.3,,,2999,1019.09,54.70,5.96,7.43,2.11,1.00,4.40,,,
2020-11-13 17:00,6.7,,,2999,1017.74,53.06,7.76,8.34,4.11,1.00,6.21,,,
2020-11-13 18:00,7.2,,,2999,1016.39,50.92,7.53,8.08,3.16,1.00,6.28,,,
2020-11-13 19:00,7.2,,,2999,1015.29,31.59,8.09,8.91,4.51,1.00,6.67,,,
2020-11-13 20:00,7.0,,,2999,1014.80,31.38,8.17,9.30,4.30,1.00,6.55,,,
2020-11-13 21:00,,,,,,,,,,,,,,
2020-11-13 22:00,5.7,,,2999,1013.94,29.31,7.57,8.57,3.73,1.00,6.32,,,
2020-11-13 23:00,5.8,,,2999,1013.57,17.20,9.07,10.52,4.51,1.00,7.36,,,
2020-11-14 01:00,5.6,,,2999,1011.98,12.58,8.39,9.39,3.82,1.00,6.94,,,
2020-11-14 02:00,5.7,,,2999,1011.73,7.74,8.20,9.58,3.06,1.00,6.40,,,
2020-11-14 03:00,5.6,,,2999,1011.73,349.84,8.99,9.93,3.60,1.00,6.85,,,
2020-11-14 04:00,5.7,,,2999,1011.24,359.36,7.54,8.82,3.54,1.00,5.95,,,
2020-11-14 05:00,5.3,,,2999,1011.36,310.80,6.24,7.26,2.58,1.00,4.71,,,
2020-11-14 06:00,5.0,,,2999,1011.12,323.50,5.55,6.65,2.47,1.00,4.39,,,
2020-11-14 07:00,4.8,,,2999,1011.73,337.30,7.34,8.58,2.84,1.00,5.07,,,
2020-11-14 08:00,5.1,,,2999,1011.98,335.30,6.47,7.19,3.18,1.00,5.27,,,
2020-11-14 09:00,3.1,,,2999,1012.83,295.90,5.93,6.50,2.40,1.00,4.72,,,
2020-11-14 10:00,3.2,,,2999,1013.20,288.00,7.10,7.84,3.20,1.00,5.02,,,
2020-11-14 11:00,2.8,,,2999,1013.69,285.90,7.47,8.15,3.56,1.00,6.14,,,
2020-11-14 12:00,3.4,,,2999,1013.94,273.20,7.30,8.33,3.91,1.00,6.34,,,
2020-11-14 13:00,4.0,,,2999,1014.30,280.60,7.16,7.76,3.54,1.00,5.87,,,
2020-11-14 14:00,4.5,,,2999,1014.80,280.40,7.43,8.30,3.80,1.00,6.11,,,
2020-11-14 15:00,,,,,,,,,,,,,,
2020-11-14 16:00,7.3,,,2999,1014.80,300.30,7.77,7.99,3.50,1.00,5.56,,,
2020-11-14 17:00,,,,,,,,,,,,,,
2020-11-14 18:00,8.8,,,2999,1014.55,320.30,8.79,9.23,3.84,1.00,6.14,,,
2020-11-14 19:00,9.4,,,2999,1015.16,294.50,9.77,10.41,4.10,1.00,7.72,,,
2020-11-14 20:00,9.2,,,2999,1016.27,307.10,9.61,10.59,4.72,1.00,7.01,,,
2020-11-14 21:00,8.8,,,2748,1017.37,305.00,11.00,11.95,5.97,1.00,8.61,,,
2020-11-14 22:00,8.1,,,2999,1018.35,308.80,10.04,11.55,5.18,1.00,7.98,,,
2020-11-14 23:00,7.6,,,2999,1019.21,315.80,11.05,11.72,5.14,1.00,7.93,,,
2020-11-15 00:00,6.9,,,2999,1019.95,309.20,10.44,11.66,5.02,1.00,8.10,,,
2020-11-15 01:00,6.3,,,2999,1020.69,323.80,7.61,8.38,3.18,1.00,6.00,,,
2020-11-15 02:00,5.5,,,2999,1021.92,304.20,7.23,7.67,3.95,1.00,5.61,,,
2020-11-15 03:00,4.7,,,2999,1022.53,295.60,5.10,5.47,2.34,1.00,3.87,,,
2020-11-15 04:00,4.2,,,2999,1022.28,305.10,8.71,9.85,4.98,1.00,7.06,,,
2020-11-15 05:00,4.7,,,2999,1022.53,312.10,8.14,9.04,4.90,1.00,6.84,,,
2020-11-15 06:00,,,,,,,,,,,,,,
2020-11-15 07:00,,,,,,,,,,,,,,
2020-11-15 08:00,4.1,,,2999,1024.01,300.10,5.74,6.08,2.80,1.00,4.37,,,
2020-11-15 09:00,4.2,,,2999,1024.62,297.70,6.00,6.34,2.56,1.00,4.53,,,
2020-11-15 10:00,4.0,,,2999,1025.36,320.30,5.74,6.18,2.74,1.00,4.29,,,
2020-11-15 11:00,3.6,,,2999,1025.36,306.00,5.52,6.12,2.26,1.00,3.98,,,
2020-11-15 12:00,3.9,,,2999,1025.85,335.40,6.69,7.24,2.00,1.00,4.19,,,
2020-11-15 13:00,3.8,,,2999,1026.47,337.20,5.26,6.20,1.46,1.00,3.74,,,
2020-11-15 14:00,4.0,,,2999,1025.73,13.72,5.35,5.85,1.71,1.00,3.61,,,
2020-11-15 15:00,4.4,,,2999,1025.73,13.14,4.42,4.89,1.35,1.00,3.22,,,
2020-11-15 16:00,4.7,,,2999,1024.87,48.64,3.69,4.14,0.79,1.00,2.47,,,
2020-11-15 17:00,6.4,,,2999,1024.01,91.70,3.45,3.72,0.23,1.00,1.56,,,
2020-11-15 18:00,5.0,,,2999,1023.39,150.70,4.52,5.05,2.32,1.00,3.49,,,
2020-11-15 19:00,5.2,,,2999,1022.41,137.80,6.88,7.10,1.73,1.00,4.89,,,
2020-11-15 20:00,5.7,,,2999,1021.92,145.90,6.88,7.75,2.41,1.00,5.22,,,
2020-11-15 21:00,6.3,,,2999,1021.79,154.00,7.49,8.51,1.56,1.00,5.55,,,
2020-11-15 22:00,7.0,,,2999,1020.32,146.90,10.41,11.70,4.37,1.00,7.85,,,
2020-11-15 23:00,8.1,,,2999,1018.97,156.90,11.86,13.32,5.07,1.00,9.34,,,
2020-11-16 00:00,8.5,,,2999,1016.02,140.40,15.76,16.96,7.06,1.00,12.08,,,
2020-11-16 01:00,9.3,,,2999,1015.04,157.20,14.89,16.21,7.50,1.00,11.89,,,
2020-11-16 02:00,9.9,,,2999,1012.59,159.60,15.38,17.31,7.25,1.00,12.05,,,
2020-11-16 03:00,10.5,,,2999,1010.14,153.10,16.08,18.19,6.99,1.00,12.18,,,
2020-11-16 04:00,10.6,,,2999,1005.24,149.30,18.60,21.29,9.27,1.00,14.95,,,
2020-11-16 05:00,10.6,,,2719,1003.17,154.60,20.12,22.24,9.88,1.00,15.59,,,
2020-11-16 06:00,11.0,,,2482,999.50,151.70,21.67,24.00,8.75,1.00,16.79,,,
2020-11-16 07:00,,,,,,,,,,,,,,
2020-11-16 08:00,10.6,,,2999,1003.04,223.10,9.05,9.76,3.60,1.00,6.62,,,
2020-11-16 09:00,9.8,,,2999,1003.65,263.50,10.43,11.55,4.25,1.00,7.67,,,
2020-11-16 10:00,,,,,,,,,,,,,,
2020-11-16 11:00,9.2,,,2999,1004.39,247.90,6.68,7.45,2.86,1.00,5.36,,,
2020-11-16 12:00,9.8,,,2999,1004.27,244.90,11.05,11.63,4.81,1.00,8.41,,,
2020-11-16 13:00,9.7,,,2954,1004.51,244.10,11.22,13.19,5.17,1.00,9.31,,,
2020-11-16 14:00,10.0,,,2956,1004.63,245.20,11.77,12.80,4.40,1.00,9.18,,,
2020-11-16 15:00,10.1,,,2967,1004.75,241.60,14.56,16.16,6.97,1.00,11.53,,,
2020-11-16 16:00,,,,,,,,,,,,,,
2020-11-16 17:00,10.2,,,2783,1004.88,254.50,12.10,13.22,5.54,1.00,9.34,,,
2020-11-16 18:00,10.7,,,2534,1005.24,263.80,12.15,13.62,5.00,1.00,8.89,,,
2020-11-16 19:00,10.4,,,2999,1005.73,245.80,11.25,12.13,4.34,1.00,8.42,,,
2020-11-16 20:00,,,,,,,,,,,,,,
2020-11-16 21:00,10.0,,,2999,1007.08,241.20,11.79,12.97,4.76,1.00,9.29,,,
2020-11-16 22:00,,,,,,,,,,,,,,
2020-11-16 23:00,9.4,,,2999,1008.18,255.20,11.28,12.52,5.53,1.00,9.04,,,
2020-11-17 00:00,9.2,,,2999,1008.79,256.90,11.00,13.29,4.47,1.00,8.84,,,
2020-11-17 01:00,,,,,,,,,,,,,,
2020-11-17 02:00,8.6,,,2999,1008.91,252.50,8.75,9.91,4.13,1.00,6.76,,,
2020-11-17 03:00,8.4,,,2999,1008.67,243.40,8.89,10.06,3.79,1.00,7.39,,,
2020-11-17 04:00,8.1,,,2999,1008.67,246.10,10.73,12.09,5.02,1.00,8.75,,,
2020-11-17 06:00,7.7,,,2999,1009.04,257.90,10.23,11.84,5.06,1.00,8.15,,,
2020-11-17 07:00,7.5,,,2999,1009.16,265.60,9.49,10.66,5.03,1.00,8.00,,,
2020-11-17 08:00,7.1,,,2999,1009.16,272.30,9.09,9.88,4.68,1.00,7.33,,,
2020-11-17 10:00,6.2,,,2999,1009.40,277.10,8.28,9.03,4.29,1.00,6.55,,,
2020-11-17 11:00,5.8,,,2999,1009.77,297.20,9.07,9.96,4.27,1.00,7.17,,,
2020-11-17 12:00,5.4,,,2999,1010.02,293.70,6.63,7.54,3.54,1.00,5.32,,,
2020-11-17 13:00,5.2,,,2999,1010.51,282.10,5.96,6.53,2.20,1.00,4.35,,,
2020-11-17 14:00,5.6,,,2896,1010.38,263.00,5.56,6.26,2.19,1.00,4.16,,,
2020-11-17 15:00,5.9,,,2999,1010.14,283.30,7.37,8.19,1.68,1.00,4.89,,,
2020-11-17 16:00,6.2,,,2999,1009.53,283.90,9.52,10.93,3.12,1.00,6.62,,,
2020-11-17 17:00,6.3,,,2999,1009.16,312.10,8.58,9.76,2.80,1.00,6.41,,,
2020-11-17 18:00,5.8,,,2999,1009.28,297.40,8.83,10.01,3.31,1.00,6.85,,,
2020-11-17 19:00,6.4,,,2793,1009.53,300.90,10.42,11.27,4.89,1.00,7.99,,,
2020-11-17 20:00,6.4,,,2669,1010.14,295.30,9.90,10.97,4.74,1.00,7.49,,,
2020-11-17 21:00,6.2,,,2901,1010.75,285.00,8.12,8.74,3.79,1.00,6.65,,,
2020-11-17 22:00,5.8,,,2999,1011.61,304.80,9.16,9.78,4.73,1.00,7.11,,,
2020-11-17 23:00,,,,,,,,,,,,,,
2020-11-18 00:00,4.7,,,2999,1013.20,327.20,9.40,10.13,3.47,1.00,7.34,,,
2020-11-18 01:00,3.9,,,2999,1013.69,340.40,7.42,8.40,1.80,1.00,5.59,,,
2020-11-18 02:00,3.5,,,2999,1014.18,326.50,8.00,8.97,2.59,1.00,6.16,,,
2020-11-18 03:00,,,,,,,,,,,,,,
2020-11-18 05:00,2.4,,,2999,1015.41,328.90,10.55,12.23,4.20,1.00,8.32,,,
2020-11-18 06:00,1.9,,,2999,1016.39,331.90,10.49,11.73,4.47,1.00,8.10,,,
2020-11-18 07:00,1.2,,,2999,1017.37,328.10,9.30,10.27,3.12,1.00,6.69,,,
2020-11-18 08:00,,,,,,,,,,,,,,
2020-11-18 09:00,0.5,,,2999,1019.21,315.50,10.39,11.88,5.75,1.00,8.52,,,
2020-11-18 10:00,0.1,,,2999,1020.56,339.30,14.18,16.04,6.11,1.00,11.26,,,
2020-11-18 11:00,-0.9,,,2999,1021.55,327.30,14.40,15.67,5.84,1.00,10.15,,,
2020-11-18 12:00,-0.8,,,2999,1022.90,327.10,13.02,15.14,4.35,1.00,9.61,,,
2020-11-18 13:00,-1.0,,,2999,1023.88,328.70,14.29,16.40,5.60,1.00,10.28,,,
2020-11-18 14:00,-0.8,,,2999,1024.37,318.50,10.43,11.59,4.20,1.00,8.30,,,
2020-11-18 15:00,-0.1,,,2999,1024.62,329.10,12.96,14.50,5.42,1.00,10.25,,,
2020-11-18 16:00,,,,,,,,,,,,,,
2020-11-18 17:00,-0.8,,,2980,1024.99,316.40,14.15,15.73,4.91,1.00,10.78,,,
2020-11-18 18:00,-0.6,,,2999,1025.73,327.80,16.53,18.91,6.77,1.00,12.06,,,
2020-11-18 19:00,,,,,,,,,,,,,,
2020-11-18 20:00,-0.1,,,2855,1026.47,318.60,13.59,14.17,5.96,1.00,10.02,,,
2020-11-18 21:00,0.0,,,2980,1027.94,315.00,12.92,13.57,5.62,1.00,9.28,,,
2020-11-18 22:00,0.1,,,2999,1029.17,317.00,13.42,14.24,6.33,1.00,9.99,,,
2020-11-18 23:00,-0.5,,,2999,1030.53,304.20,11.68,12.58,5.75,1.00,9.30,,,
2020-11-19 00:00,,,,,,,,,,,,,,
2020-11-19 01:00,-1.6,,,2999,1032.01,294.30,8.34,9.39,4.35,1.00,6.86,,,
2020-11-19 02:00,,,,,,,,,,,,,,
2020-11-19 03:00,-2.3,,,2999,1032.75,296.80,9.42,10.33,4.09,1.00,6.84,,,
2020-11-19 04:00,,,,,,,,,,,,,,
2020-11-19 05:00,-2.3,,,2999,1033.37,297.80,9.19,11.33,4.59,1.00,7.68,,,
2020-11-19 06:00,,,,,,,,,,,,,,
2020-11-19 07:00,-2.8,,,2999,1033.74,300.40,9.47,10.35,4.83,1.00,7.41,,,
2020-11-19 08:00,-3.1,,,2999,1034.23,305.40,9.26,9.74,4.94,1.00,7.28,,,
2020-11-19 09:00,,,,,,,,,,,,,,
2020-11-19 10:00,-3.0,,,2999,1035.46,315.00,7.09,7.82,2.68,1.00,5.43,,,
2020-11-19 11:00,,,,,,,,,,,,,,
2020-11-19 12:00,-2.7,,,2999,1035.71,285.80,5.16,5.70,2.66,1.00,4.20,,,
2020-11-19 13:00,-2.4,,,2999,1035.96,274.80,4.14,4.50,1.11,1.00,2.78,,,
2020-11-19 14:00,-1.7,,,2359,1035.83,237.00,5.44,5.72,1.71,1.00,3.74,,,
2020-11-19 15:00,-1.1,,,2999,1035.59,220.10,5.80,6.12,1.11,1.00,3.44,,,
2020-11-19 16:00,0.3,,,2999,1033.49,205.80,8.87,9.57,3.56,1.00,6.23,,,
2020-11-19 17:00,2.0,,,2999,1032.26,205.80,10.11,10.79,3.77,1.00,7.74,,,
2020-11-19 18:00,1.9,,,2999,1031.27,217.70,11.58,13.30,5.55,1.00,9.30,,,
2020-11-19 19:00,2.5,,,2999,1030.04,222.10,13.00,13.69,5.72,1.00,9.99,,,
2020-11-19 20:00,3.6,,,2999,1028.31,208.30,13.82,15.43,6.56,1.00,10.94,,,
2020-11-19 21:00,4.4,,,2999,1027.94,210.60,15.33,16.95,6.46,1.00,11.97,,,
2020-11-19 22:00,5.6,,,2999,1027.57,221.80,14.90,16.36,6.67,1.00,11.78,,,
2020-11-19 23:00,6.5,,,2999,1026.71,219.50,14.30,16.32,6.22,1.00,11.61,,,
2020-11-20 00:00,7.5,,,2999,1026.34,228.70,14.80,16.59,6.09,1.00,11.25,,,
2020-11-20 01:00,7.8,,,2999,1025.73,231.20,15.62,18.29,7.49,1.00,12.57,,,
2020-11-20 02:00,7.8,,,2999,1025.48,231.50,15.06,17.12,7.16,1.00,12.06,,,
2020-11-20 03:00,,,,,,,,,,,,,,
2020-11-20 04:00,7.8,,,2999,1024.50,233.70,13.98,15.23,6.69,1.00,11.43,,,
2020-11-20 05:00,8.1,,,2999,1023.88,232.60,15.33,17.17,5.87,1.00,12.01,,,
2020-11-20 06:00,8.4,,,2999,1023.51,231.40,14.08,16.23,6.80,1.00,11.50,,,
2020-11-20 07:00,8.6,,,2999,1023.14,230.70,13.67,15.42,6.70,1.00,11.19,,,
2020-11-20 08:00,8.7,,,2999,1022.65,230.50,12.96,14.61,6.01,1.00,10.40,,,
2020-11-20 09:00,8.7,,,2999,1022.28,233.90,13.11,15.00,6.33,1.00,10.79,,,
2020-11-20 10:00,,,,,,,,,,,,,,
2020-11-20 11:00,8.7,,,2999,1022.53,237.60,11.89,13.34,4.87,1.00,9.49,,,
2020-11-20 12:00,8.7,,,2999,1022.53,240.30,11.34,12.39,5.00,1.00,8.94,,,
2020-11-20 13:00,8.8,,,2999,1022.53,235.80,10.88,12.42,5.44,1.00,8.89,,,
2020-11-20 14:00,9.0,,,2999,1022.65,236.10,11.73,12.75,4.71,1.00,9.49,,,
2020-11-20 15:00,9.0,,,2999,1022.53,235.80,9.98,12.02,4.57,1.00,8.25,,,
2020-11-20 16:00,9.2,,,2999,1021.79,233.90,8.91,9.61,4.28,1.00,6.88,,,
2020-11-20 17:00,9.4,,,2999,1021.18,242.70,7.81,8.94,3.65,1.00,6.36,,,
2020-11-20 18:00,9.8,,,2999,1020.56,232.50,7.62,8.74,2.87,1.00,6.28,,,
2020-11-20 19:00,9.7,,,2999,1019.95,227.80,9.05,10.29,4.25,1.00,7.16,,,
2020-11-20 20:00,9.9,,,2999,1019.83,234.20,8.62,10.10,3.83,1.00,6.91,,,
2020-11-20 21:00,10.3,,,2999,1019.95,228.00,8.05,9.28,3.41,1.00,6.66,,,
2020-11-20 22:00,10.5,,,2999,1019.95,235.20,7.72,8.44,2.83,1.00,6.09,,,
2020-11-20 23:00,10.6,,,2999,1019.83,228.70,5.86,6.83,2.62,1.00,4.63,,,
2020-11-21 00:00,10.5,,,2999,1019.46,227.40,7.31,8.26,3.43,1.00,5.96,,,
2020-11-21 01:00,10.6,,,2999,1018.97,231.40,7.06,7.74,4.02,1.00,5.93,,,
2020-11-21 02:00,11.5,,,2999,1018.60,252.90,8.70,9.38,3.75,1.00,7.07,,,
2020-11-21 03:00,11.5,,,2999,1018.84,261.10,6.78,7.21,3.27,1.00,5.34,,,
2020-11-21 04:00,11.6,,,2999,1018.72,254.90,6.17,7.17,3.18,1.00,5.09,,,
2020-11-21 05:00,11.2,,,2999,1018.60,243.60,5.44,6.85,2.68,1.00,4.45,,,
2020-11-21 06:00,,,,,,,,,,,,,,
2020-11-21 07:00,10.3,,,2999,1018.97,266.80,5.12,6.03,2.43,1.00,4.28,,,
2020-11-21 08:00,10.6,,,2999,1019.21,260.70,5.29,5.73,2.14,1.00,3.81,,,
2020-11-21 09:00,10.5,,,2999,1019.46,261.60,4.05,5.14,1.44,1.00,3.11,,,
2020-11-21 10:00,10.3,,,2999,1020.07,236.10,3.66,4.23,1.19,1.00,2.71,,,
2020-11-21 11:00,10.2,,,2999,1020.69,248.40,3.85,5.43,1.76,1.00,3.17,,,
2020-11-21 12:00,10.3,,,2999,1021.67,288.10,3.39,4.19,1.74,1.00,2.81,,,
2020-11-21 13:00,10.2,,,2999,1022.41,280.80,4.54,4.90,1.89,1.00,3.56,,,
2020-11-21 14:00,11.1,,,2999,1023.02,312.50,6.97,7.67,3.37,1.00,5.40,,,
2020-11-21 15:00,11.8,,,2999,1023.39,305.20,11.15,13.08,4.03,1.00,8.20,,,
2020-11-21 16:00,11.5,,,2999,1023.14,315.20,10.81,11.82,4.71,1.00,7.77,,,
2020-11-21 17:00,10.9,,,2907,1023.14,335.20,9.45,11.62,4.42,1.00,7.70,,,
2020-11-21 18:00,11.1,,,2999,1023.64,316.70,8.18,9.38,2.24,1.00,6.06,,,
2020-11-21 19:00,11.1,,,2995,1024.01,325.40,7.97,9.03,3.62,1.00,6.24,,,
2020-11-21 20:00,10.8,,,2999,1024.74,320.70,9.25,10.26,4.72,1.00,7.43,,,
2020-11-21 21:00,9.9,,,2999,1025.85,313.50,8.62,9.36,4.67,1.00,6.93,,,
2020-11-21 22:00,9.2,,,2999,1026.96,317.90,9.15,9.95,4.61,1.00,7.23,,,
2020-11-21 23:00,8.4,,,2999,1028.07,327.90,9.84,11.23,4.85,1.00,8.24,,,
2020-11-22 00:00,,,,,,,,,,,,,,
2020-11-22 01:00,7.1,,,2999,1030.53,336.80,7.79,9.14,3.46,1.00,6.43,,,
2020-11-22 02:00,6.6,,,2999,1031.27,343.20,9.75,11.10,4.87,1.00,7.99,,,
2020-11-22 03:00,5.7,,,2999,1032.26,353.44,10.54,12.01,3.40,1.00,8.43,,,
2020-11-22 04:00,4.9,,,2999,1032.87,9.76,9.77,10.98,4.62,1.00,7.73,,,
2020-11-22 05:00,,,,,,,,,,,,,,
2020-11-22 06:00,3.1,,,2999,1033.98,3.41,10.58,12.52,4.74,1.00,8.23,,,
2020-11-22 07:00,2.9,,,2999,1034.60,1.04,10.74,11.39,5.01,1.00,8.24,,,
2020-11-22 08:00,2.6,,,2999,1035.09,9.06,8.82,10.72,3.42,1.00,7.12,,,
2020-11-22 09:00,2.4,,,2999,1035.34,23.02,9.97,11.40,4.11,1.00,7.65,,,
2020-11-22 10:00,1.8,,,2999,1035.83,49.01,8.23,9.00,3.36,1.00,6.19,,,
2020-11-22 11:00,1.5,,,2999,1036.45,44.39,7.75,8.21,3.33,1.00,5.97,,,
2020-11-22 12:00,1.4,,,2999,1036.70,57.88,8.14,8.51,3.40,1.00,6.23,,,
2020-11-22 13:00,1.4,,,2999,1037.19,48.32,8.18,8.86,3.63,1.00,6.08,,,
2020-11-22 14:00,1.5,,,2999,1037.81,42.96,7.17,8.37,2.19,1.00,5.34,,,
2020-11-22 15:00,,,,,,,,,,,,,,
2020-11-22 16:00,1.7,,,2999,1037.32,18.93,6.28,7.34,1.83,1.00,4.70,,,
2020-11-22 17:00,2.1,,,2965,1037.19,28.78,5.40,5.83,0.40,1.00,2.66,,,
2020-11-22 18:00,2.9,,,2999,1036.57,133.80,2.88,3.33,0.07,1.00,1.56,,,
2020-11-22 19:00,3.2,,,2999,1035.96,55.79,1.92,2.37,0.15,1.00,1.16,,,
2020-11-22 20:00,2.4,,,2999,1036.08,145.00,3.48,3.90,0.59,1.00,1.96,,,
2020-11-22 21:00,2.6,,,2999,1034.97,118.20,5.02,5.29,1.65,1.00,3.39,,,
2020-11-22 22:00,3.0,,,2999,1034.60,107.00,6.71,7.17,2.55,1.00,5.25,,,
2020-11-22 23:00,3.4,,,2999,1033.98,107.10,7.02,8.11,2.97,1.00,5.62,,,
2020-11-23 00:00,4.3,,,2999,1033.12,107.40,8.83,9.54,3.42,1.00,6.81,,,
2020-11-23 01:00,5.2,,,2999,1032.13,117.30,8.80,9.92,2.99,1.00,7.05,,,
2020-11-23 02:00,5.9,,,2999,1031.27,123.90,8.78,9.57,3.75,1.00,6.74,,,
2020-11-23 03:00,6.2,,,2999,1030.41,120.10,9.88,11.73,4.37,1.00,7.98,,,
2020-11-23 04:00,6.6,,,2999,1029.54,131.80,9.22,10.20,3.89,1.00,7.32,,,
2020-11-23 05:00,7.3,,,2999,1028.19,136.70,10.32,11.39,4.25,1.00,8.17,,,
2020-11-23 06:00,7.5,,,2999,1026.59,131.50,11.56,13.23,4.85,1.00,9.05,,,
2020-11-23 07:00,8.1,,,2999,1025.36,129.20,11.78,12.60,4.93,1.00,9.19,,,
2020-11-23 08:00,8.2,,,2999,1023.02,119.40,11.87,13.20,4.83,1.00,9.44,,,
2020-11-23 09:00,8.8,,,2999,1021.79,121.30,11.21,12.21,4.34,1.00,8.00,,,
2020-11-23 10:00,9.2,,,2981,1019.09,122.30,12.89,14.44,5.00,1.00,10.35,,,
2020-11-23 11:00,9.7,,,2998,1016.14,123.10,15.49,16.92,6.59,1.00,11.61,,,
2020-11-23 12:00,10.4,,,2999,1014.55,132.00,15.54,17.69,7.38,1.00,12.54,,,
2020-11-23 13:00,10.7,,,2999,1013.20,140.10,14.51,16.72,5.67,1.00,11.30,,,
2020-11-23 14:00,11.3,,,2999,1010.87,148.30,14.49,16.25,6.51,1.00,11.65,,,
2020-11-23 15:00,11.7,,,2999,1009.53,152.10,14.54,15.64,6.31,1.00,11.53,,,
2020-11-23 16:00,11.9,,,2999,1007.69,156.80,12.91,14.83,5.87,1.00,10.33,,,
2020-11-23 17:00,12.0,,,2999,1005.73,168.90,15.80,17.22,7.41,1.00,11.78,,,
2020-11-23 18:00,11.2,,,2662,1005.12,222.80,7.47,9.38,1.96,1.00,5.37,,,
2020-11-23 19:00,10.5,,,2879,1004.27,234.30,4.66,5.89,1.74,1.00,3.75,,,
2020-11-23 20:00,10.4,,,2999,1003.17,318.70,6.08,7.50,1.68,1.00,4.60,,,
2020-11-23 21:00,9.5,,,2999,1004.27,289.00,8.20,9.36,3.39,1.00,6.64,,,
2020-11-23 22:00,7.8,,,2999,1005.73,302.60,12.98,14.71,3.33,1.00,9.44,,,
2020-11-23 23:00,,,,,,,,,,,,,,
2020-11-24 00:00,5.7,,,2999,1007.45,299.90,14.21,15.66,3.90,1.00,8.30,,,
2020-11-24 01:00,4.5,,,2999,1007.81,300.50,14.83,16.36,6.38,1.00,10.75,,,
2020-11-24 02:00,,,,,,,,,,,,,,
2020-11-24 03:00,3.7,,,2999,1008.42,299.00,13.66,14.45,6.15,1.00,10.16,,,
2020-11-24 04:00,3.5,,,2999,1009.04,297.50,11.82,13.43,5.43,1.00,8.88,,,
2020-11-24 05:00,3.5,,,2999,1009.77,296.30,11.73,13.11,5.61,1.00,9.09,,,
2020-11-24 06:00,3.2,,,2999,1010.51,291.30,11.53,14.11,4.43,1.00,8.30,,,
2020-11-24 07:00,3.1,,,2999,1011.73,305.30,12.83,15.28,5.90,1.00,9.42,,,
2020-11-24 08:00,2.8,,,2999,1012.47,306.10,11.52,12.49,4.71,1.00,8.49,,,
2020-11-24 09:00,2.8,,,2999,1013.32,299.90,14.04,15.58,6.43,1.00,10.35,,,
2020-11-24 10:00,2.7,,,2999,1013.81,302.10,17.01,18.50,6.19,1.00,12.34,,,
2020-11-24 11:00,2.4,,,2999,1014.92,298.70,15.24,17.45,6.94,1.00,11.73,,,
2020-11-24 12:00,2.3,,,2999,1016.14,297.30,15.23,17.13,6.52,1.00,11.70,,,
2020-11-24 13:00,2.3,,,2999,1017.86,293.20,12.54,14.16,6.42,1.00,10.32,,,
2020-11-24 14:00,2.5,,,2999,1018.97,296.90,14.52,16.00,5.40,1.00,10.48,,,
2020-11-24 15:00,,,,,,,,,,,,,,
2020-11-24 16:00,,,,,,,,,,,,,,
2020-11-24 17:00,1.9,,,2999,1021.30,293.60,13.52,15.25,6.06,1.00,10.34,,,
2020-11-24 18:00,1.7,,,2915,1022.53,293.40,12.68,13.92,4.46,1.00,9.35,,,
2020-11-24 19:00,,,,,,,,,,,,,,
2020-11-24 20:00,1.7,,,2864,1024.62,306.30,12.63,14.51,5.80,1.00,9.50,,,
2020-11-24 21:00,1.1,,,2999,1026.34,331.80,11.97,13.58,4.79,1.00,9.07,,,
2020-11-24 22:00,0.6,,,2999,1027.94,329.70,11.21,12.55,4.71,1.00,8.72,,,
2020-11-24 23:00,,,,,,,,,,,,,,
2020-11-25 00:00,,,,,,,,,,,,,,
2020-11-25 01:00,,,,,,,,,,,,,,
2020-11-25 02:00,-1.6,,,2999,1032.75,348.35,11.36,12.04,4.79,1.00,8.94,,,
2020-11-25 03:00,,,,,,,,,,,,,,
2020-11-25 04:00,-2.0,,,2999,1032.87,351.39,9.61,10.31,4.18,1.00,7.21,,,
2020-11-25 05:00,,,,,,,,,,,,,,
2020-11-25 06:00,-2.5,,,2999,1033.86,23.57,6.39,7.52,1.16,1.00,4.02,,,
2020-11-25 07:00,-2.3,,,2999,1034.48,33.43,4.96,5.88,0.48,1.00,3.00,,,
2020-11-25 08:00,-2.2,,,2999,1033.98,87.50,6.45,6.77,2.16,1.00,4.41,,,
2020-11-25 09:00,-2.1,,,2999,1034.23,72.20,4.87,5.36,1.28,1.00,3.32,,,
2020-11-25 10:00,-1.7,,,2999,1034.72,73.60,5.08,5.24,0.79,1.00,3.13,,,
2020-11-25 11:00,-0.8,,,2999,1034.72,85.90,6.40,7.07,1.92,1.00,4.60,,,
2020-11-25 12:00,-0.3,,,2999,1034.60,73.30,5.67,6.19,2.28,1.00,4.22,,,
2020-11-25 13:00,0.8,,,2999,1033.98,79.70,5.43,5.83,2.39,1.00,4.04,,,
2020-11-25 14:00,2.6,,,2999,1033.49,163.80,7.79,8.47,2.13,1.00,5.69,,,